Track EXPLORER 29 (GEOS 1) now! 10-day predictions EXPLORER 29 (GEOS 1) is classified as:
1 01726U 65089A 21027.67656118 -.00000094 00000-0 -11192-3 0 9998 2 01726 59.3803 129.5781 0717495 15.5403 124.3342 11.97050678414226